Location: Washington
(38.8950°N, 77.0370°W)
Time: 06:53:11
(UTC-04:00)

Amateur Radio Satellites - All Passes

Search period start: 03 September 2015 06:23
Search period end: 04 September 2015 06:23
Location: Washington, 38.8950°N, 77.0370°W

Satellite Date Start Highest point End Downlink Frequencies (MHz)
Time Altitude Azimuth
O/OREOS (USA 219) 03 Sep 06:27:30 06:29:32 12° 260° (W) 06:31:20 437.305
CUBESAT XI-V 03 Sep 06:44:22 06:48:55 63° 260° (W) 06:53:29 437.345
AO-7 03 Sep 06:59:37 07:06:19 27° 302° (WNW) 07:12:47 29.400- 29.500
CUTE-I 03 Sep 07:03:18 07:08:20 43° 98° (E) 07:13:24 437.470
ISS 03 Sep 07:19:46 07:21:58 17° 131° (SE) 07:24:15 145.825
PHONESAT 2.4 03 Sep 07:20:04 07:23:28 65° 358° (N) 07:26:51 2401.200-2431.200
VERMONT LUNAR 03 Sep 07:25:59 07:28:52 47° 201° (SSW) 07:31:44 437.305
STRAND 1 03 Sep 07:35:04 07:40:10 75° 259° (WSW) 07:45:16 437.568
PRISM 03 Sep 07:40:23 07:44:29 87° 255° (WSW) 07:48:35 437.425
YUBILEINY 03 Sep 07:50:07 07:58:19 42° 73° (ENE) 08:06:34 435.215
Cubesat XI-IV 03 Sep 07:59:00 08:04:13 57° 288° (WNW) 08:09:26 437.490
AIST 1 03 Sep 08:09:51 08:14:02 63° 95° (E) 08:18:15
SO-50 03 Sep 08:20:23 08:22:56 14° 39° (NE) 08:25:37 436.795
BRITE-PL 03 Sep 08:30:12 08:35:45 61° 100° (E) 08:41:24 437.365/2234.400
CUTE 1.7 + AOD 2 03 Sep 08:32:56 08:34:05 11° 89° (E) 08:35:30 437.475
Cosmos 2491 03 Sep 08:37:12 08:45:09 43° 89° (E) 08:53:14 435.465 / 435.565
CUTE-I 03 Sep 08:43:59 08:48:11 23° 294° (WNW) 08:52:15 437.470
CANX-2 03 Sep 08:45:52 08:48:47 19° 92° (E) 08:51:48 2200.000
GOMX 1 03 Sep 08:46:00 08:51:22 52° 98° (E) 08:56:41 467.674
DOVE 4 03 Sep 08:47:12 08:51:54 32° 94° (E) 08:56:34 437.250
ISS 03 Sep 08:55:02 08:58:11 44° 327° (NNW) 09:01:19 145.825
PHONESAT 2.4 03 Sep 08:58:02 09:01:27 88° 196° (SSW) 09:04:51 2401.200-2431.200
SEEDS 03 Sep 09:02:26 09:05:29 20° 93° (E) 09:08:38 437.485
CUSAT 1 03 Sep 09:10:16 09:12:40 12° 57° (ENE) 09:15:44 437.405
CINEMA 3 03 Sep 09:13:52 09:17:49 24° 92° (E) 09:21:46 145.822/145.860
HO-68 03 Sep 09:18:28 09:25:22 48° 99° (E) 09:32:16 435.675
COMPASS 1 03 Sep 09:19:37 09:22:59 24° 94° (E) 09:26:24 437.405
PCSat 03 Sep 09:25:19 09:27:55 14° 41° (NE) 09:30:45 145.827
AAUSAT CUBESAT 2 03 Sep 09:27:24 09:30:48 25° 94° (E) 09:34:14 437.432
AUBIESAT-1 03 Sep 09:29:13 09:30:48 12° 59° (ENE) 09:32:36 437.475
M-CUBED/EXP-1 PRIME 03 Sep 09:35:46 09:38:40 17° 62° (ENE) 09:41:42 437.505
TIGRISAT 03 Sep 09:44:42 09:47:26 16° 66° (ENE) 09:50:22 435.000
YUBILEINY 03 Sep 09:47:03 09:55:10 41° 272° (W) 10:03:04 435.215
DANDE 03 Sep 09:55:29 10:00:35 19° 64° (ENE) 10:06:25 436.750
SO-50 03 Sep 09:59:20 10:04:18 87° 59° (ENE) 10:09:06 436.795
ANTELSAT 03 Sep 10:01:48 10:05:34 25° 69° (ENE) 10:09:25 437.575/2403.000
Cosmos 2504 03 Sep 10:05:22 10:13:10 41° 73° (ENE) 10:20:36 435.465 / 435.565
CUTE 1.7 + AOD 2 03 Sep 10:06:17 10:10:25 54° 285° (WNW) 10:14:30 437.475
BRITE-PL 03 Sep 10:09:55 10:13:50 19° 294° (WNW) 10:17:36 437.365/2234.400
ZACube-1 03 Sep 10:11:23 10:14:53 23° 93° (E) 10:18:24 437.345
NANOSAT C BR1 03 Sep 10:15:19 10:15:52 10° 64° (ENE) 10:16:40 145.865
FUNcube-1 03 Sep 10:15:26 10:19:02 24° 94° (E) 10:22:37 145.935
QB50P2 03 Sep 10:15:48 10:17:02 11° 65° (ENE) 10:18:29 145.880/145.840
CANX-2 03 Sep 10:21:00 10:24:49 33° 288° (WNW) 10:28:34 2200.000
CUBEBUG 2 03 Sep 10:22:31 10:27:05 55° 99° (E) 10:31:30 437.445
UWE-3 03 Sep 10:23:51 10:28:12 42° 98° (E) 10:32:25 435.000/436.395/437.385
DOVE 4 03 Sep 10:24:54 10:29:34 31° 291° (WNW) 10:34:05 437.250
GOMX 1 03 Sep 10:24:59 10:29:06 21° 293° (WNW) 10:33:04 467.674
QB50P1 03 Sep 10:28:11 10:30:36 15° 67° (ENE) 10:33:10 145.935-145.965
ISS 03 Sep 10:33:50 10:35:15 12° 345° (NNW) 10:36:38 145.825
Cosmos 2491 03 Sep 10:34:03 10:42:07 39° 288° (WNW) 10:50:05 435.465 / 435.565
HUMSAT D 03 Sep 10:34:40 10:36:57 15° 90° (E) 10:39:25 437.325/437.525
PHONESAT 2.4 03 Sep 10:36:16 10:39:05 24° 209° (SSW) 10:41:53 2401.200-2431.200
SEEDS 03 Sep 10:37:38 10:41:20 30° 288° (WNW) 10:44:57 437.485
CUSAT 1 03 Sep 10:49:04 10:56:57 59° 77° (ENE) 11:05:00 437.405
CINEMA 3 03 Sep 10:50:33 10:55:06 35° 289° (WNW) 10:59:26 145.822/145.860
UNISAT 6 03 Sep 10:51:36 10:56:18 82° 78° (ENE) 11:01:03 437.425
COMPASS 1 03 Sep 10:55:10 10:58:35 25° 290° (WNW) 11:01:55 437.405
DX 1 03 Sep 10:55:56 10:58:11 14° 91° (E) 11:00:39 434.975-435.025
Oscar 11 03 Sep 10:57:41 11:01:59 67° 285° (WNW) 11:06:13 145.826/435.025
AUBIESAT-1 03 Sep 11:00:12 11:04:57 82° 253° (WSW) 11:09:37 437.475
AAUSAT CUBESAT 2 03 Sep 11:02:57 11:06:19 24° 290° (WNW) 11:09:36 437.432
UKube-1 03 Sep 11:03:56 11:06:26 15° 92° (E) 11:09:08 .
HO-68 03 Sep 11:06:36 11:12:53 33° 296° (WNW) 11:19:01 435.675
DELFI C3 03 Sep 11:06:48 11:10:47 79° 285° (WNW) 11:14:45 145.870
PCSat 03 Sep 11:06:50 11:12:18 82° 61° (ENE) 11:17:43 145.827
M-CUBED/EXP-1 PRIME 03 Sep 11:08:18 11:13:02 58° 255° (WSW) 11:17:42 437.505
TIGRISAT 03 Sep 11:19:12 11:23:46 53° 261° (W) 11:28:24 435.000
CUBEBUG 1 03 Sep 11:22:33 11:23:11 10° 88° (E) 11:24:08 437.445
BUGSAT 1 03 Sep 11:24:11 11:27:54 36° 72° (ENE) 11:31:44 437.445
ESTCUBE 1 03 Sep 11:25:59 11:28:29 15° 91° (E) 11:31:12 437.505/2401.250
50 SAT 03 Sep 11:26:31 11:29:32 22° 94° (E) 11:32:35 437.505
AISAT 03 Sep 11:28:16 11:31:43 22° 94° (E) 11:35:16 437.250
DUCHIFAT 1 03 Sep 11:28:22 11:32:34 69° 76° (ENE) 11:36:50 145.980
POLYITAN 1 03 Sep 11:28:57 11:33:13 76° 76° (ENE) 11:37:32 437.675
POPSAT HIP 1 03 Sep 11:30:26 11:34:40 76° 77° (ENE) 11:38:58 437.405
DANDE 03 Sep 11:36:45 11:44:42 87° 81° (E) 11:53:17 436.750
ANTELSAT 03 Sep 11:37:57 11:42:11 32° 264° (W) 11:46:24 437.575/2403.000
NANOSAT C BR1 03 Sep 11:46:56 11:51:09 69° 258° (WSW) 11:55:26 145.865
ZACube-1 03 Sep 11:47:21 11:51:16 30° 290° (WNW) 11:55:03 437.345
QB50P2 03 Sep 11:48:12 11:52:25 63° 259° (W) 11:56:41 145.880/145.840
FUNcube-1 03 Sep 11:51:30 11:55:20 28° 290° (WNW) 11:59:01 145.935
VELOX 1 03 Sep 11:55:03 11:59:18 41° 98° (E) 12:03:32 145.980
Cosmos 2504 03 Sep 11:57:41 12:05:23 40° 273° (W) 12:12:30 435.465 / 435.565
CUBEBUG 2 03 Sep 12:00:39 12:03:18 15° 295° (WNW) 12:05:44 437.445
UWE-3 03 Sep 12:01:18 12:04:23 18° 293° (WNW) 12:07:16 435.000/436.395/437.385
QB50P1 03 Sep 12:02:02 12:06:06 44° 261° (W) 12:10:13 145.935-145.965
HUMSAT D 03 Sep 12:08:57 12:12:57 41° 287° (WNW) 12:16:51 437.325/437.525
DX 1 03 Sep 12:30:30 12:34:44 48° 287° (WNW) 12:38:57 434.975-435.025
CUSAT 1 03 Sep 12:32:18 12:39:09 31° 272° (W) 12:45:51 437.405
UKube-1 03 Sep 12:38:41 12:42:49 43° 288° (WNW) 12:46:54 .
GONETS M04 03 Sep 12:38:53 12:44:40 20° 63° (ENE) 12:50:54
SPROUT 03 Sep 12:40:33 12:44:05 25° 94° (E) 12:47:40 437.525
PCSat 03 Sep 12:52:56 12:55:05 12° 256° (WSW) 12:56:54 145.827
JUGNU 03 Sep 12:53:26 12:54:14 10° 174° (S) 12:55:05 437.505
Oscar 19 03 Sep 12:54:22 12:58:37 27° 68° (ENE) 13:02:59 437.125/150
CUBEBUG 1 03 Sep 12:55:39 13:00:03 65° 284° (WNW) 13:04:26 437.445
50 SAT 03 Sep 13:00:54 13:04:00 23° 290° (WNW) 13:07:01 437.505
BUGSAT 1 03 Sep 13:00:54 13:03:34 16° 269° (W) 13:06:05 437.445
ESTCUBE 1 03 Sep 13:01:20 13:05:40 47° 287° (WNW) 13:09:58 437.505/2401.250
AISAT 03 Sep 13:04:20 13:08:21 32° 289° (WNW) 13:12:18 437.250
DANDE 03 Sep 13:21:39 13:27:14 20° 274° (W) 13:32:38 436.750
VELOX 1 03 Sep 13:32:29 13:35:33 18° 293° (WNW) 13:38:29 145.980
TISAT 1 03 Sep 13:32:42 13:36:54 53° 100° (E) 13:41:05 437.305
ISS 03 Sep 13:47:42 13:50:15 21° 25° (NNE) 13:52:49 145.825
Gurwin Techsat 1B 03 Sep 13:57:56 14:02:37 34° 69° (ENE) 14:07:24 435.225
JAS-2 03 Sep 13:58:16 14:04:15 26° 63° (ENE) 14:10:30 435.910
ITAMSAT 1 03 Sep 13:59:30 14:03:48 28° 68° (ENE) 14:08:13 435.822/435.867
BEESAT 03 Sep 14:06:24 14:09:49 20° 93° (E) 14:13:21 436.000
AO-7 03 Sep 14:14:44 14:19:40 18° 53° (NE) 14:24:58 29.400- 29.500
SPROUT 03 Sep 14:16:26 14:20:08 27° 290° (WNW) 14:23:44 437.525
BEESAT 3 03 Sep 14:23:22 14:27:16 49° 117° (ESE) 14:31:14 437.485
RS-15 03 Sep 14:27:06 14:34:06 21° 102° (ESE) 14:41:54 29.354- 29.394
SWISSCUBE 03 Sep 14:32:01 14:36:29 40° 98° (E) 14:40:59 437.505
Oscar 19 03 Sep 14:33:08 14:37:51 35° 263° (W) 14:42:33 437.125/150
GONETS M04 03 Sep 14:33:58 14:42:49 84° 264° (W) 14:51:40
BEESAT 2 03 Sep 14:39:45 14:43:45 56° 118° (ESE) 14:47:47 435.950
JUGNU 03 Sep 14:40:51 14:42:21 11° 184° (S) 14:43:50 437.505
TISAT 1 03 Sep 15:10:07 15:12:14 13° 294° (WNW) 15:14:10 437.305
ITUPSAT 1 03 Sep 15:11:49 15:16:37 85° 280° (W) 15:21:22 437.325
Cosmos 2499 03 Sep 15:20:18 15:28:41 55° 76° (ENE) 15:36:30 435.465 / 435.565
ISS 03 Sep 15:23:41 15:26:52 52° 223° (SW) 15:30:01 145.825
AIST 2 03 Sep 15:36:16 15:40:16 43° 116° (ESE) 15:44:19 435.215
Gurwin Techsat 1B 03 Sep 15:38:03 15:42:38 29° 265° (W) 15:47:09 435.225
ITAMSAT 1 03 Sep 15:38:34 15:43:13 33° 264° (W) 15:47:51 435.822/435.867
JAS-2 03 Sep 15:40:59 15:48:40 70° 259° (W) 15:56:32 435.910
STARS 03 Sep 15:41:00 15:44:00 18° 92° (E) 15:47:06 437.465
BEESAT 03 Sep 15:43:23 15:47:50 39° 289° (WNW) 15:52:13 436.000
SRMSAT 03 Sep 15:56:06 15:57:50 11° 180° (S) 15:59:34 437.500
BEESAT 3 03 Sep 16:02:47 16:05:30 17° 315° (NW) 16:08:07 437.485
AO-7 03 Sep 16:03:02 16:11:23 81° 70° (ENE) 16:19:45 29.400- 29.500
KKS-1 03 Sep 16:06:05 16:10:33 60° 101° (E) 16:14:59 437.445
SWISSCUBE 03 Sep 16:10:34 16:14:05 20° 293° (WNW) 16:17:29 437.505
HORYU 2 03 Sep 16:14:41 16:19:10 76° 76° (ENE) 16:23:40 437.375
BEESAT 2 03 Sep 16:19:36 16:22:09 15° 316° (NW) 16:24:36 435.950
GONETS M04 03 Sep 16:33:45 16:38:31 15° 281° (W) 16:42:40
RS-15 03 Sep 16:34:12 16:45:08 89° 303° (WNW) 16:56:33 29.354- 29.394
MOZHAYETS 4 03 Sep 16:40:45 16:44:05 20° 93° (E) 16:47:30
Cosmos 2499 03 Sep 17:14:15 17:21:23 30° 276° (W) 17:27:53 435.465 / 435.565
AIST 2 03 Sep 17:15:52 17:19:03 20° 314° (NW) 17:22:09 435.215
STARS 03 Sep 17:16:27 17:20:36 38° 288° (WNW) 17:24:42 437.465
JAS-2 03 Sep 17:32:26 17:35:11 11° 278° (W) 17:37:16 435.910
Cubesat XI-IV 03 Sep 17:41:01 17:45:16 26° 67° (ENE) 17:49:38 437.490
KKS-1 03 Sep 17:44:33 17:46:43 13° 295° (WNW) 17:48:41 437.445
AO-7 03 Sep 17:59:15 18:05:10 20° 270° (W) 18:10:39 29.400- 29.500
MOZHAYETS 4 03 Sep 18:17:15 18:21:25 35° 289° (WNW) 18:25:32
AIST 1 03 Sep 18:19:31 18:21:48 14° 70° (ENE) 18:24:17
CUTE-I 03 Sep 18:23:53 18:29:06 63° 74° (ENE) 18:34:22 437.470
CUBESAT XI-V 03 Sep 18:42:20 18:46:34 35° 96° (E) 18:50:51 437.345
Cosmos 2491 03 Sep 18:49:43 18:55:27 20° 63° (ENE) 19:01:37 435.465 / 435.565
RS-15 03 Sep 18:49:59 18:59:25 30° 328° (NNW) 19:08:59 29.354- 29.394
O/OREOS (USA 219) 03 Sep 18:56:44 19:01:16 88° 118° (ESE) 19:05:53 437.305
Cubesat XI-IV 03 Sep 19:20:14 19:25:12 39° 262° (W) 19:30:09 437.490
PRISM 03 Sep 19:25:14 19:27:16 14° 91° (E) 19:29:31 437.425
CANX-2 03 Sep 19:38:54 19:40:42 13° 66° (ENE) 19:42:41 2200.000
BRITE-PL 03 Sep 19:40:17 19:44:35 54° 74° (ENE) 19:49:16 437.365/2234.400
HO-68 03 Sep 19:46:10 19:52:15 32° 64° (ENE) 19:58:29 435.675
STRAND 1 03 Sep 19:46:58 19:51:46 40° 98° (E) 19:56:35 437.568
DOVE 4 03 Sep 19:51:47 19:55:36 26° 68° (ENE) 19:59:43 437.250
GOMX 1 03 Sep 19:53:05 19:57:24 43° 72° (ENE) 20:02:04 467.674
SEEDS 03 Sep 19:54:28 19:56:25 13° 67° (ENE) 19:58:33 437.485
AIST 1 03 Sep 19:55:37 19:59:46 44° 267° (W) 20:03:54
CUTE-I 03 Sep 20:06:37 20:09:43 15° 270° (W) 20:12:33 437.470
COMPASS 1 03 Sep 20:10:30 20:12:55 16° 68° (ENE) 20:15:29 437.405
CINEMA 3 03 Sep 20:14:35 20:17:57 20° 67° (ENE) 20:21:33 145.822/145.860
AAUSAT CUBESAT 2 03 Sep 20:17:50 20:20:16 16° 68° (ENE) 20:22:51 437.432
CUBESAT XI-V 03 Sep 20:20:12 20:23:50 22° 292° (WNW) 20:27:22 437.345
O/OREOS (USA 219) 03 Sep 20:40:46 20:41:29 10° 310° (NW) 20:41:58 437.305
Cosmos 2491 03 Sep 20:44:48 20:53:36 84° 264° (W) 21:02:24 435.465 / 435.565
YUBILEINY 03 Sep 20:49:09 20:57:26 50° 90° (E) 21:05:52 435.215
CUTE 1.7 + AOD 2 03 Sep 20:57:20 21:01:38 88° 75° (ENE) 21:05:55 437.475
PRISM 03 Sep 20:59:03 21:02:58 43° 287° (WNW) 21:06:52 437.425
ZACube-1 03 Sep 21:06:33 21:09:29 18° 67° (ENE) 21:12:36 437.345
RS-15 03 Sep 21:10:05 21:17:13 18° 2° (N) 21:24:36 29.354- 29.394
FUNcube-1 03 Sep 21:10:17 21:13:20 19° 67° (ENE) 21:16:35 145.935
CANX-2 03 Sep 21:11:59 21:16:11 55° 260° (W) 21:20:24 2200.000
CUBEBUG 2 03 Sep 21:19:03 21:23:24 40° 72° (ENE) 21:27:52 437.445
UWE-3 03 Sep 21:19:31 21:23:34 31° 70° (ENE) 21:27:43 435.000/436.395/437.385
BRITE-PL 03 Sep 21:21:31 21:23:42 13° 273° (W) 21:25:42 437.365/2234.400
STRAND 1 03 Sep 21:26:44 21:30:45 23° 293° (WNW) 21:34:39 437.568
HUMSAT D 03 Sep 21:27:21 21:27:43 10° 64° (ENE) 21:28:22 437.325/437.525
SEEDS 03 Sep 21:27:40 21:31:48 51° 261° (W) 21:35:57 437.485
DOVE 4 03 Sep 21:29:03 21:33:13 32° 266° (W) 21:37:36 437.250
GOMX 1 03 Sep 21:32:41 21:35:52 18° 271° (W) 21:39:02 467.674
HO-68 03 Sep 21:32:53 21:39:46 48° 261° (W) 21:46:40 435.675
COMPASS 1 03 Sep 21:44:15 21:48:16 42° 262° (W) 21:52:16 437.405
CINEMA 3 03 Sep 21:50:18 21:54:49 43° 263° (W) 21:59:30 145.822/145.860
Oscar 11 03 Sep 21:50:47 21:55:08 79° 76° (ENE) 21:59:30 145.826/435.025
AAUSAT CUBESAT 2 03 Sep 21:51:34 21:55:33 41° 262° (W) 21:59:31 437.432
DX 1 03 Sep 21:51:45 21:53:02 11° 64° (ENE) 21:54:34 434.975-435.025
DELFI C3 03 Sep 21:52:16 21:56:11 50° 74° (ENE) 22:00:07 145.870
UKube-1 03 Sep 21:58:46 22:00:24 12° 64° (ENE) 22:02:14 .
50 SAT 03 Sep 22:10:22 22:11:43 12° 66° (ENE) 22:13:15 437.505
AISAT 03 Sep 22:25:26 22:28:20 18° 67° (ENE) 22:31:23 437.250
ESTCUBE 1 03 Sep 22:25:28 22:27:24 13° 65° (ENE) 22:29:32 437.505/2401.250
Cosmos 2504 03 Sep 22:33:52 22:40:42 32° 85° (E) 22:48:02 435.465 / 435.565
ZACube-1 03 Sep 22:41:08 22:45:30 45° 262° (W) 22:49:56 437.345
BEESAT 3 03 Sep 22:43:16 22:46:25 22° 48° (NE) 22:49:35 437.485
Cosmos 2491 03 Sep 22:44:39 22:49:19 15° 281° (W) 22:53:23 435.465 / 435.565
FUNcube-1 03 Sep 22:45:02 22:49:21 42° 262° (W) 22:53:43 145.935
UNISAT 6 03 Sep 22:46:05 22:49:11 19° 91° (E) 22:52:23 437.425
YUBILEINY 03 Sep 22:46:42 22:54:35 34° 290° (WNW) 23:02:21 435.215
VELOX 1 03 Sep 22:51:33 22:55:25 32° 71° (ENE) 22:59:22 145.980
UWE-3 03 Sep 22:56:17 23:00:05 24° 267° (W) 23:03:53 435.000/436.395/437.385
CUBEBUG 2 03 Sep 22:56:49 23:00:16 20° 269° (W) 23:03:37 437.445
HUMSAT D 03 Sep 22:58:36 23:02:55 73° 259° (WSW) 23:07:15 437.325/437.525
BEESAT 2 03 Sep 23:00:13 23:03:33 24° 49° (NE) 23:06:53 435.950
TIGRISAT 03 Sep 23:12:31 23:16:39 35° 97° (E) 23:20:42 435.000
DUCHIFAT 1 03 Sep 23:16:14 23:17:52 12° 89° (E) 23:19:44 145.980
POLYITAN 1 03 Sep 23:17:13 23:19:19 14° 90° (E) 23:21:37 437.675
POPSAT HIP 1 03 Sep 23:18:25 23:20:33 14° 90° (E) 23:22:52 437.405
DX 1 03 Sep 23:24:30 23:28:48 65° 259° (WSW) 23:33:07 434.975-435.025
RS-15 03 Sep 23:24:42 23:34:51 33° 36° (NE) 23:45:34 29.354- 29.394
DELFI C3 03 Sep 23:30:11 23:31:36 11° 271° (W) 23:32:46 145.870
ANTELSAT 03 Sep 23:30:48 23:35:17 59° 100° (E) 23:39:39 437.575/2403.000
UKube-1 03 Sep 23:31:49 23:36:03 59° 259° (WSW) 23:40:20 .
NANOSAT C BR1 03 Sep 23:33:44 23:36:55 21° 93° (E) 23:40:10 145.865
SPROUT 03 Sep 23:34:14 23:36:58 17° 67° (ENE) 23:39:52 437.525
QB50P2 03 Sep 23:35:17 23:38:39 23° 94° (E) 23:42:05 145.880/145.840
50 SAT 03 Sep 23:41:58 23:45:49 51° 260° (W) 23:49:41 437.505
QB50P1 03 Sep 23:48:23 23:52:11 31° 96° (E) 23:56:00 145.935-145.965
CUBEBUG 1 03 Sep 23:50:14 23:54:33 88° 77° (ENE) 23:58:55 437.445
CUSAT 1 03 Sep 23:55:01 23:58:57 51° 93° (E) 00:04:14 437.405
ESTCUBE 1 03 Sep 23:59:24 00:03:49 60° 260° (W) 00:08:16 437.505/2401.250
AIST 2 03 Sep 23:59:27 00:02:40 21° 47° (NE) 00:05:55 435.215
AISAT 04 Sep 00:00:27 00:04:37 40° 262° (W) 00:08:48 437.250
PCSat 04 Sep 00:07:59 00:09:36 12° 104° (ESE) 00:11:34 145.827
SO-50 04 Sep 00:12:26 00:16:48 38° 115° (ESE) 00:21:21 436.795
AUBIESAT-1 04 Sep 00:17:12 00:21:02 84° 286° (WNW) 00:24:32 437.475
BEESAT 3 04 Sep 00:20:47 00:24:24 32° 245° (WSW) 00:27:57 437.485
UNISAT 6 04 Sep 00:21:57 00:26:09 37° 289° (WNW) 00:30:13 437.425
TISAT 1 04 Sep 00:23:37 00:27:23 33° 71° (ENE) 00:31:13 437.305
Cosmos 2504 04 Sep 00:24:32 00:32:32 53° 284° (WNW) 00:40:54 435.465 / 435.565
M-CUBED/EXP-1 PRIME 04 Sep 00:25:59 00:29:46 52° 291° (WNW) 00:33:13 437.505
VELOX 1 04 Sep 00:28:37 00:32:02 21° 266° (W) 00:35:22 145.980
BEESAT 2 04 Sep 00:38:03 00:41:35 29° 246° (WSW) 00:45:01 435.950
BUGSAT 1 04 Sep 00:42:16 00:46:33 78° 103° (ESE) 00:50:49 437.445
ITUPSAT 1 04 Sep 00:44:10 00:44:43 10° 62° (ENE) 00:45:34 437.325
DANDE 04 Sep 00:48:10 00:51:46 68° 282° (WNW) 00:56:40 436.750
TIGRISAT 04 Sep 00:49:45 00:53:10 21° 292° (WNW) 00:56:25 435.000
DUCHIFAT 1 04 Sep 00:49:52 00:54:03 52° 286° (WNW) 00:58:11 145.980
POLYITAN 1 04 Sep 00:51:22 00:55:32 47° 287° (WNW) 00:59:38 437.675
POPSAT HIP 1 04 Sep 00:52:35 00:56:44 47° 287° (WNW) 01:00:49 437.405
SPROUT 04 Sep 01:08:43 01:12:46 39° 262° (W) 01:16:50 437.525
NANOSAT C BR1 04 Sep 01:08:58 01:12:48 31° 289° (WNW) 01:16:32 145.865
ANTELSAT 04 Sep 01:09:22 01:11:35 13° 295° (WNW) 01:13:33 437.575/2403.000
QB50P2 04 Sep 01:10:49 01:14:33 29° 290° (WNW) 01:18:12 145.880/145.840
BEESAT 04 Sep 01:11:57 01:15:26 21° 67° (ENE) 01:19:02 436.000
QB50P1 04 Sep 01:24:34 01:27:53 21° 291° (WNW) 01:31:05 145.935-145.965
VERMONT LUNAR 04 Sep 01:31:13 01:32:59 15° 148° (SSE) 01:34:48 437.305
RS-15 04 Sep 01:37:00 01:48:57 85° 241° (WSW) 02:01:15 29.354- 29.394
SWISSCUBE 04 Sep 01:37:20 01:41:46 41° 72° (ENE) 01:46:15 437.505
AIST 2 04 Sep 01:37:31 01:41:21 36° 245° (WSW) 01:45:06 435.215
GONETS M04 04 Sep 01:39:32 01:45:35 23° 82° (E) 01:52:02
CUSAT 1 04 Sep 01:39:39 01:42:22 15° 301° (WNW) 01:45:15 437.405
PCSat 04 Sep 01:46:58 01:52:23 84° 298° (WNW) 01:57:51 145.827
SO-50 04 Sep 01:53:19 01:57:27 27° 313° (NW) 02:01:38 436.795
TISAT 1 04 Sep 02:00:12 02:03:15 19° 268° (W) 02:06:12 437.305
Gurwin Techsat 1B 04 Sep 02:16:39 02:19:18 14° 89° (E) 02:22:14 435.225
ITUPSAT 1 04 Sep 02:17:13 02:22:00 85° 259° (WSW) 02:26:47 437.325
STARS 04 Sep 02:37:30 02:39:52 15° 66° (ENE) 02:42:26 437.465
Oscar 19 04 Sep 02:45:18 02:50:32 89° 297° (WNW) 02:55:44 437.125/150
BEESAT 04 Sep 02:48:34 02:53:02 39° 262° (W) 02:57:29 436.000
JAS-2 04 Sep 02:55:02 02:59:22 19° 86° (E) 03:03:39 435.910
KKS-1 04 Sep 03:02:54 03:07:09 46° 73° (ENE) 03:11:28 437.445
VERMONT LUNAR 04 Sep 03:06:04 03:09:03 67° 162° (SSE) 03:12:02 437.305
SWISSCUBE 04 Sep 03:16:21 03:19:49 19° 268° (W) 03:23:09 437.505
PHONESAT 2.4 04 Sep 03:21:29 03:22:19 11° 145° (SE) 03:23:15 2401.200-2431.200
O/OREOS (USA 219) 04 Sep 03:30:16 03:32:42 14° 53° (NE) 03:35:18 437.305
GONETS M04 04 Sep 03:33:01 03:41:40 71° 280° (W) 03:50:24
PCSat 04 Sep 03:33:50 03:36:44 14° 319° (NW) 03:39:25 145.827
MOZHAYETS 4 04 Sep 03:42:01 03:45:01 18° 67° (ENE) 03:48:11
RS-15 04 Sep 03:51:51 04:00:08 21° 258° (WSW) 04:07:43 29.354- 29.394
ITAMSAT 1 04 Sep 03:51:53 03:57:06 85° 285° (WNW) 04:02:18 435.822/435.867
Cosmos 2499 04 Sep 03:53:56 04:01:51 47° 89° (E) 04:10:14 435.465 / 435.565
Gurwin Techsat 1B 04 Sep 03:54:33 03:59:50 66° 287° (WNW) 04:05:05 435.225
AO-7 04 Sep 04:06:53 04:13:39 28° 94° (E) 04:20:38 29.400- 29.500
HORYU 2 04 Sep 04:08:27 04:11:05 16° 91° (E) 04:13:53 437.375
STARS 04 Sep 04:11:37 04:15:55 51° 260° (W) 04:20:16 437.465
Oscar 19 04 Sep 04:27:39 04:29:13 11° 299° (WNW) 04:30:27 437.125/150
JAS-2 04 Sep 04:38:30 04:45:17 64° 288° (WNW) 04:51:11 435.910
KKS-1 04 Sep 04:41:24 04:44:05 15° 269° (W) 04:46:35 437.445
VERMONT LUNAR 04 Sep 04:42:33 04:45:31 60° 359° (N) 04:48:28 437.305
PHONESAT 2.4 04 Sep 04:56:24 04:59:44 48° 158° (SSE) 05:03:02 2401.200-2431.200
O/OREOS (USA 219) 04 Sep 05:08:04 05:12:37 60° 252° (WSW) 05:17:07 437.305
MOZHAYETS 4 04 Sep 05:17:33 05:21:57 43° 262° (W) 05:26:21
ITAMSAT 1 04 Sep 05:34:46 05:35:55 10° 299° (WNW) 05:36:43 435.822/435.867
GONETS M04 04 Sep 05:36:40 05:40:34 13° 303° (WNW) 05:43:50
HORYU 2 04 Sep 05:43:45 05:48:00 43° 287° (WNW) 05:52:11 437.375
CUBESAT XI-V 04 Sep 05:44:43 05:48:40 29° 70° (ENE) 05:52:40 437.345
Cosmos 2499 04 Sep 05:47:19 05:55:13 38° 289° (WNW) 06:03:16 435.465 / 435.565
AO-7 04 Sep 05:58:51 06:06:59 61° 293° (WNW) 06:15:03 29.400- 29.500
